Wind_Speed
15 18 17 17 18 16 18 19 20 20 20 19 20 20 18 21 23 22 17 17 17 18 18 18 15 14 13 8 5 4 5 6 4 3 4 3 3 7 11 15 16 14 20
14 16 17 16 15 16 19 23 22 21 23 20 19 19 19 21 20 22 22 20 17 16 18 18 14 14 13 9 8 6 4 4 7 9 9 11 11 13 11 11 13 17 17
12 14 14 14 14 15 19 21 22 23 21 21 20 21 21 22 26 25 22 21 18 16 16 18 16 17 18 13 13 11 4 5 12 14 15 16 15 15 15 18 15 7 13
11 13 13 14 13 15 15 18 21 21 23 24 23 23 22 19 23 24 21 19 18 17 13 16 17 16 16 17 12 17 3 6 15 18 20 21 18 16 15 15 14 14 14
10 11 12 14 14 11 14 16 20 21 22 24 25 22 28 21 22 24 23 18 21 16 18 14 18 16 16 15 15 17 11 10 15 23 23 20 17 15 15 14 17 17 16
8 10 11 12 12 10 13 15 18 20 22 24 25 26 26 25 21 22 25 20 18 18 18 14 15 17 15 18 14 12 11 17 16 16 16 13 15 14 14 14 16 15 15
6 9 9 10 11 11 12 14 18 19 19 23 26 26 25 24 22 23 22 20 19 19 18 16 15 15 14 13 14 14 13 15 12 10 10 7 11 10 11 10 7 7 9
5 7 7 8 9 10 11 12 15 20 19 20 21 24 26 28 24 21 20 21 20 17 17 16 15 14 12 12 11 13 14 13 12 8 6 7 7 7 8 7 3 4 7
2 4 5 6 7 8 9 10 11 13 17 20 20 21 22 25 26 25 23 17 19 18 20 14 14 12 12 11 9 10 12 12 11 10 9 9 7 5 6 5 4 6 6
2 2 3 4 6 9 10 9 9 12 17 19 20 21 23 25 24 24 22 20 17 18 18 18 16 10 11 10 8 7 9 11 11 10 9 5 5 6 6 6 5 2 3
2 1 2 3 6 10 10 11 11 12 16 17 18 20 23 26 23 22 23 17 20 18 17 17 15 13 11 9 8 6 8 8 9 8 7 5 3 4 5 7 5 5 4
3 2 3 5 7 11 13 13 13 12 14 16 18 17 20 23 23 19 21 20 19 20 20 15 15 12 10 10 9 7 6 7 7 7 6 6 3 5 5 5 4 5 5
4 5 5 7 6 10 13 14 12 12 14 15 18 18 20 21 23 18 17 18 19 19 16 18 14 15 11 10 9 7 6 6 5 4 6 7 7 9 8 6 6 6 6
4 5 6 6 6 8 12 14 13 12 14 14 19 20 16 15 19 21 18 16 16 18 16 14 12 15 13 13 10 8 7 7 6 5 5 7 8 9 9 10 10 10 10
3 4 3 4 6 7 12 13 13 13 11 12 15 17 16 16 18 21 17 15 15 15 14 13 12 13 14 10 12 12 10 6 6 5 4 5 5 5 6 7 7 7 8
2 2 2 3 6 8 11 10 11 12 12 11 13 14 16 18 17 18 15 12 12 13 13 15 16 15 14 14 12 9 7 9 5 4 4 4 6 8 8 6 5 5 6
3 1 1 4 7 9 11 11 12 13 13 14 12 12 15 16 16 13 12 13 12 12 12 11 14 15 16 15 15 12 5 7 7 7 4 3 6 6 3 4 3 4 3
1 2 2 5 9 9 11 11 13 13 14 14 13 12 14 14 15 11 12 13 11 11 12 13 13 12 13 15 14 12 10 6 5 4 4 4 3 2 1 2 2 3 5
2 2 4 6 11 9 9 10 11 12 12 12 13 13 12 14 13 12 15 13 11 11 11 13 13 13 12 13 13 12 8 8 8 3 3 1 1 2 3 2 4 3 5
4 4 5 6 9 8 8 10 11 12 11 12 13 13 10 13 12 13 12 13 12 12 13 15 15 13 13 12 12 12 10 8 7 5 6 4 4 4 5 3 4 4 4
7 6 7 6 9 7 7 13 12 14 13 13 13 11 11 11 12 13 11 12 13 13 13 12 12 16 11 12 11 10 11 7 8 6 5 8 5 4 5 7 8 6 5
9 9 5 6 6 8 10 12 15 13 12 13 12 11 12 12 13 12 11 12 12 15 18 14 10 12 14 13 12 12 10 8 8 8 5 9 3 5 5 5 5 7 7
6 6 8 11 10 8 10 12 16 12 12 11 10 11 13 14 12 12 13 10 13 17 15 12 10 11 14 16 14 13 10 8 7 8 6 7 7 8 7 6 6 7 7
8 8 9 9 10 11 12 11 12 13 13 10 9 12 14 15 12 11 10 13 16 19 18 13 11 13 15 16 14 9 10 8 7 9 5 7 6 3 1 4 5 6 7
7 9 12 13 11 10 11 9 10 10 10 9 8 10 13 13 11 12 15 15 18 20 19 16 16 16 15 13 9 9 8 7 7 5 8 9 7 4 5 2 3 6 9
3 5 5 5 5 5 6 10 11 10 10 8 9 12 13 13 13 15 15 17 19 20 18 16 16 15 14 11 8 8 9 9 8 7 8 7 8 4 5 1 4 6 8
Wind_Direction
17 16 16 19 32 33 17 16 20 16 12 9 15 16 17 14 13 16 8 6 5 10 10 13 12 7 3 359 329 288 258 240 200 138 182 156 178 159 163 158 159 124 163
14 11 15 27 33 24 26 28 27 19 21 18 16 15 20 12 17 22 20 15 13 13 7 9 20 14 7 8 359 325 252 220 187 186 145 137 132 124 126 124 120 109 124
10 12 21 29 29 27 28 31 31 26 21 20 23 24 22 23 21 16 22 18 17 14 14 22 12 15 24 16 19 8 338 192 186 184 155 141 126 120 113 113 107 118 107
21 29 25 23 23 22 23 30 26 26 28 37 36 26 22 21 18 18 15 22 23 24 25 28 22 22 25 25 35 24 30 155 180 174 153 137 130 124 115 110 99 104 102
28 22 20 22 16 21 34 35 25 27 29 27 25 24 27 22 20 20 20 28 27 20 25 38 35 33 34 33 49 49 80 120 152 146 134 127 117 123 117 114 113 106 99
21 16 16 21 26 49 43 36 28 24 26 27 24 24 25 25 23 18 22 24 21 26 27 25 34 34 42 41 49 64 72 103 107 122 119 115 116 119 119 118 120 115 107
9 7 21 32 43 46 44 37 31 23 24 24 23 24 22 22 14 18 20 21 26 29 30 33 36 40 44 49 48 60 69 84 95 110 117 126 139 133 132 130 138 135 136
4 15 32 42 44 38 32 32 32 25 23 23 22 22 22 18 17 17 18 21 27 31 28 26 31 33 48 58 57 70 76 79 81 79 107 119 128 136 151 161 176 205 146
341 7 26 29 26 24 20 18 23 20 22 15 13 10 15 25 13 17 18 22 27 26 27 25 22 38 39 53 58 69 71 86 77 85 95 110 126 131 154 155 162 167 161
291 346 9 30 35 24 16 13 12 8 5 5 10 14 15 17 16 10 15 22 22 27 29 32 26 45 41 45 62 65 74 68 64 59 61 89 122 138 149 150 144 132 159
250 304 25 9 2 356 359 360 4 0 2 6 6 15 17 15 11 10 11 22 25 22 24 22 30 37 40 47 59 67 79 67 57 51 47 54 92 137 171 196 198 212 208
241 260 283 323 329 344 346 338 347 346 350 3 3 12 16 24 17 13 12 17 21 15 19 16 24 39 44 48 55 61 60 55 47 38 33 51 98 151 151 153 173 194 210
255 261 284 304 312 338 343 346 340 335 336 354 3 8 6 11 15 22 18 14 15 17 12 30 25 34 47 49 51 55 46 44 61 83 91 55 86 112 117 116 126 124 115
275 276 280 304 304 335 341 347 351 348 343 349 355 358 359 3 5 10 15 18 13 19 16 16 31 28 40 39 41 42 50 57 66 69 49 61 86 97 98 105 107 107 108
278 286 290 326 326 323 337 344 349 351 356 357 357 360 360 357 357 359 2 13 11 10 11 27 23 28 35 35 35 35 38 43 44 44 58 78 107 107 112 118 114 111 104
354 10 5 1 346 328 333 341 352 356 354 357 359 2 6 359 347 354 4 10 12 9 12 24 31 28 26 25 25 23 39 38 42 45 59 94 118 122 117 117 121 125 112
313 229 10 6 349 347 335 344 349 347 346 344 335 348 354 357 0 6 15 16 11 11 16 18 17 20 21 16 14 16 35 28 30 33 55 113 150 161 133 89 120 149 120
16 146 12 358 343 336 345 346 343 340 340 342 338 333 349 2 359 5 9 2 1 1 7 8 5 5 3 12 9 17 22 15 359 28 22 62 91 158 152 127 141 154 137
91 328 320 331 352 355 341 333 334 338 336 336 336 338 337 359 358 356 360 3 355 4 2 354 351 348 350 349 0 2 7 359 359 335 304 279 256 296 308 297 206 177 164
270 309 287 309 338 357 4 4 359 350 345 342 342 338 336 350 353 356 1 5 2 1 360 357 357 337 331 335 343 350 354 1 346 342 330 276 243 284 253 251 260 199 168
257 285 313 286 310 334 341 353 348 349 347 342 344 340 340 346 350 353 359 6 3 355 344 343 340 357 344 327 326 335 341 338 346 324 314 329 260 242 272 254 245 218 204
251 289 285 286 312 330 340 342 343 337 341 340 346 343 348 346 346 346 340 340 347 345 346 331 327 336 340 340 324 318 322 326 325 319 307 327 256 253 246 236 229 228 215
252 286 297 283 291 312 328 330 332 335 337 336 336 341 348 344 336 337 334 338 337 341 338 333 322 325 326 325 320 313 305 316 311 320 306 302 267 254 240 223 230 241 207
246 284 306 310 288 291 305 315 330 336 342 338 323 333 339 341 336 333 336 335 337 340 338 336 329 327 328 326 323 304 301 309 321 315 302 300 296 307 273 221 218 217 200
247 282 305 307 303 298 312 324 333 337 340 342 337 340 338 341 338 332 331 334 338 340 338 335 333 334 336 339 331 316 304 303 311 311 304 295 252 278 327 176 211 193 187
356 340 337 340 341 345 341 337 335 335 336 335 335 337 340 339 336 333 335 336 338 339 337 334 332 333 336 334 328 319 310 299 295 300 306 309 236 287 290 141 257 228 210
Height
1554 1550 1547 1544 1542 1539 1536 1532 1529 1525 1521 1516 1512 1508 1504 1500 1495 1489 1485 1480 1476 1473 1469 1465 1461 1458 1455 1454 1454 1453 1452 1451 1451 1451 1452 1452 1453 1453 1454 1454 1455 1457 1456
1554 1552 1549 1546 1543 1541 1538 1535 1531 1527 1522 1518 1514 1510 1505 1501 1497 1492 1487 1483 1479 1475 1471 1467 1465 1462 1458 1455 1452 1450 1450 1449 1450 1450 1452 1453 1454 1454 1456 1456 1457 1458 1458
1555 1553 1550 1547 1545 1543 1540 1537 1533 1529 1525 1520 1516 1511 1507 1502 1499 1494 1489 1485 1481 1477 1473 1469 1467 1463 1459 1455 1452 1448 1446 1446 1447 1449 1451 1454 1455 1456 1457 1458 1458 1461 1462
1556 1554 1552 1549 1547 1545 1542 1539 1535 1531 1527 1523 1518 1514 1509 1505 1501 1496 1491 1488 1484 1479 1475 1472 1469 1465 1461 1457 1453 1450 1446 1446 1447 1450 1452 1455 1457 1460 1461 1458 1462 1463 1460
1556 1555 1553 1551 1549 1546 1544 1540 1537 1533 1529 1525 1521 1516 1512 1507 1502 1498 1493 1488 1485 1481 1477 1474 1471 1468 1464 1460 1456 1453 1449 1449 1449 1452 1454 1458 1459 1461 1462 1464 1464 1465 1468
1558 1557 1555 1553 1550 1547 1545 1543 1540 1536 1532 1527 1523 1518 1514 1510 1505 1500 1495 1490 1487 1483 1480 1477 1474 1470 1467 1464 1460 1458 1456 1455 1456 1457 1459 1460 1462 1463 1464 1465 1467 1469 1470
1559 1558 1556 1554 1552 1550 1547 1545 1542 1538 1534 1530 1525 1521 1516 1512 1507 1502 1497 1492 1489 1485 1482 1479 1476 1473 1470 1468 1466 1463 1462 1461 1462 1462 1462 1463 1464 1466 1467 1468 1469 1471 1473
1559 1558 1557 1555 1554 1552 1550 1547 1544 1540 1536 1532 1528 1523 1519 1514 1509 1504 1499 1495 1491 1487 1484 1481 1478 1475 1472 1471 1470 1468 1466 1466 1465 1466 1465 1466 1467 1468 1469 1470 1472 1472 1473
1559 1558 1557 1556 1554 1552 1550 1547 1544 1541 1537 1533 1529 1525 1520 1515 1510 1506 1501 1497 1494 1490 1486 1483 1480 1478 1475 1474 1473 1472 1470 1469 1469 1469 1469 1469 1469 1470 1470 1471 1472 1473 1473
1557 1557 1557 1556 1555 1552 1549 1547 1544 1541 1538 1535 1531 1526 1522 1517 1512 1508 1503 1499 1496 1492 1489 1486 1482 1479 1478 1476 1474 1475 1473 1473 1472 1471 1471 1471 1471 1471 1472 1472 1473 1474 1474
1556 1557 1557 1556 1554 1552 1549 1547 1544 1542 1539 1535 1532 1528 1524 1519 1514 1510 1505 1501 1497 1494 1491 1488 1485 1482 1480 1479 1477 1476 1476 1475 1475 1474 1474 1473 1472 1472 1473 1473 1474 1475 1475
1555 1556 1556 1555 1554 1552 1549 1547 1544 1542 1539 1536 1532 1528 1524 1520 1516 1511 1507 1503 1499 1496 1492 1489 1487 1484 1482 1481 1480 1479 1478 1478 1477 1477 1476 1475 1474 1474 1474 1474 1474 1475 1475
1554 1554 1554 1554 1552 1551 1549 1546 1544 1542 1539 1536 1532 1528 1524 1521 1517 1513 1509 1505 1502 1498 1495 1492 1489 1487 1485 1483 1482 1480 1479 1479 1478 1478 1477 1476 1475 1474 1475 1475 1475 1475 1475
1552 1552 1551 1551 1550 1549 1548 1545 1543 1540 1538 1535 1532 1529 1526 1522 1518 1514 1509 1506 1503 1500 1497 1494 1492 1489 1487 1485 1482 1482 1481 1480 1479 1479 1478 1477 1476 1476 1476 1477 1477 1477 1477
1550 1550 1549 1549 1549 1548 1547 1545 1542 1540 1537 1535 1533 1529 1526 1523 1519 1514 1510 1507 1505 1502 1500 1497 1494 1491 1489 1487 1485 1483 1482 1481 1480 1480 1479 1478 1478 1478 1478 1479 1479 1480 1480
1549 1549 1549 1548 1548 1547 1545 1543 1541 1539 1536 1534 1532 1530 1526 1522 1518 1515 1512 1509 1506 1503 1501 1498 1496 1494 1491 1489 1487 1485 1484 1482 1482 1481 1480 1480 1480 1480 1480 1481 1481 1481 1481
1549 1548 1548 1547 1546 1545 1543 1541 1540 1538 1535 1533 1531 1528 1525 1522 1518 1515 1512 1510 1507 1505 1502 1500 1498 1496 1493 1491 1488 1486 1485 1484 1482 1482 1481 1480 1481 1481 1481 1482 1481 1481 1482
1548 1549 1548 1547 1546 1543 1542 1540 1538 1536 1534 1532 1529 1527 1524 1521 1518 1515 1513 1510 1508 1506 1504 1501 1499 1497 1495 1492 1489 1487 1485 1485 1484 1482 1482 1482 1481 1481 1481 1482 1482 1482 1483
1549 1549 1548 1546 1544 1542 1541 1539 1537 1535 1533 1531 1529 1526 1523 1520 1517 1515 1512 1510 1508 1505 1503 1502 1499 1497 1494 1492 1490 1488 1486 1485 1483 1483 1482 1482 1482 1482 1482 1482 1482 1482 1482
1548 1547 1546 1546 1544 1542 1541 1539 1537 1534 1532 1530 1527 1525 1522 1519 1517 1515 1512 1510 1508 1505 1503 1501 1498 1496 1493 1491 1489 1488 1486 1484 1483 1482 1481 1480 1481 1480 1480 1481 1480 1481 1480
1547 1546 1545 1544 1543 1542 1540 1538 1536 1534 1531 1528 1526 1523 1520 1518 1516 1514 1512 1510 1508 1506 1503 1501 1498 1495 1492 1490 1488 1487 1485 1483 1482 1481 1480 1479 1478 1478 1478 1478 1479 1479 1479
1545 1544 1543 1542 1542 1541 1539 1537 1535 1532 1529 1527 1525 1522 1519 1517 1515 1513 1511 1509 1507 1505 1502 1498 1497 1494 1491 1488 1486 1484 1483 1482 1481 1479 1478 1477 1476 1476 1476 1476 1476 1476 1477
1543 1543 1542 1541 1540 1539 1537 1535 1532 1530 1527 1525 1523 1521 1518 1515 1513 1512 1509 1507 1505 1503 1501 1498 1495 1493 1489 1487 1484 1482 1480 1479 1478 1477 1476 1475 1474 1474 1473 1474 1475 1474 1474
1540 1541 1540 1538 1537 1536 1534 1532 1530 1527 1524 1523 1520 1518 1516 1514 1511 1510 1508 1506 1503 1500 1497 1494 1491 1488 1486 1483 1481 1479 1478 1477 1476 1475 1473 1473 1471 1471 1470 1471 1472 1473 1475
1539 1538 1538 1536 1534 1533 1532 1530 1528 1525 1523 1521 1519 1517 1515 1512 1510 1508 1506 1503 1500 1497 1494 1491 1488 1485 1483 1480 1478 1477 1475 1474 1474 1472 1471 1470 1469 1470 1469 1470 1470 1472 1473
1538 1537 1536 1534 1533 1532 1531 1529 1526 1524 1522 1520 1518 1515 1514 1511 1509 1506 1504 1501 1498 1494 1491 1488 1485 1483 1480 1478 1476 1475 1474 1472 1471 1470 1470 1468 1467 1468 1467 1469 1469 1469 1471